Time,TemperatureF,DewpointF,PressureIn,WindDirection,WindDirectionDegrees,WindSpeedMPH,WindSpeedGustMPH,Humidity,HourlyPrecipIn,Conditions,Clouds,dailyrainin,SolarRadiationWatts/m^2,SoftwareType,DateUTC
2013-08-18 00:01:00,65.0,44.0,-100.00,WSW,248,6.0,10.0,47,0.00,,,0.00,1.000000,,2013-08-18 06:01:00,
2013-08-18 00:11:00,65.0,44.0,-100.00,WSW,248,6.0,10.0,47,0.00,,,0.00,1.000000,,2013-08-18 06:11:00,
2013-08-18 00:42:00,66.0,44.0,-100.00,West,275,9.0,14.0,45,0.00,,,0.00,1.000000,,2013-08-18 06:42:00,
2013-08-18 00:52:00,66.0,44.0,-100.00,West,275,9.0,14.0,45,0.00,,,0.00,1.000000,,2013-08-18 06:52:00,
2013-08-18 01:01:00,66.0,44.0,-100.00,West,275,9.0,14.0,45,0.00,,,0.00,1.000000,,2013-08-18 07:01:00,
2013-08-18 01:11:00,66.0,44.0,-100.00,West,275,9.0,14.0,45,0.00,,,0.00,1.000000,,2013-08-18 07:11:00,
2013-08-18 01:42:00,64.0,43.0,-100.00,SW,219,3.0,10.0,47,0.00,,,0.00,1.000000,,2013-08-18 07:42:00,
2013-08-18 01:52:00,64.0,43.0,-100.00,SW,219,3.0,10.0,47,0.00,,,0.00,1.000000,,2013-08-18 07:52:00,
2013-08-18 02:01:00,64.0,43.0,-100.00,SW,219,3.0,10.0,47,0.00,,,0.00,1.000000,,2013-08-18 08:01:00,
2013-08-18 02:12:00,64.0,43.0,-100.00,SW,219,3.0,10.0,47,0.00,,,0.00,1.000000,,2013-08-18 08:12:00,
2013-08-18 02:42:00,61.0,43.0,-100.00,SE,126,3.0,7.0,52,0.00,,,0.00,1.000000,,2013-08-18 08:42:00,
2013-08-18 02:52:00,61.0,43.0,-100.00,SE,126,3.0,7.0,52,0.00,,,0.00,1.000000,,2013-08-18 08:52:00,
2013-08-18 03:01:00,61.0,43.0,-100.00,SE,126,3.0,7.0,52,0.00,,,0.00,1.000000,,2013-08-18 09:01:00,
2013-08-18 03:11:00,61.0,43.0,-100.00,SE,126,3.0,7.0,52,0.00,,,0.00,1.000000,,2013-08-18 09:11:00,
2013-08-18 03:43:00,61.0,45.0,-100.00,East,89,4.0,6.0,56,0.00,,,0.00,1.000000,,2013-08-18 09:43:00,
2013-08-18 03:53:00,61.0,45.0,-100.00,East,89,4.0,6.0,56,0.00,,,0.00,1.000000,,2013-08-18 09:53:00,
2013-08-18 04:03:00,61.0,45.0,-100.00,East,89,4.0,6.0,56,0.00,,,0.00,1.000000,,2013-08-18 10:03:00,
2013-08-18 04:12:00,61.0,45.0,-100.00,East,89,4.0,6.0,56,0.00,,,0.00,1.000000,,2013-08-18 10:12:00,
2013-08-18 04:42:00,65.0,44.0,-100.00,South,171,3.0,4.0,47,0.00,,,0.00,1.000000,,2013-08-18 10:42:00,
2013-08-18 04:52:00,65.0,44.0,-100.00,South,171,3.0,4.0,47,0.00,,,0.00,1.000000,,2013-08-18 10:52:00,
2013-08-18 05:02:00,65.0,44.0,-100.00,South,171,3.0,4.0,47,0.00,,,0.00,1.000000,,2013-08-18 11:02:00,
2013-08-18 05:11:00,65.0,44.0,-100.00,South,171,3.0,4.0,47,0.00,,,0.00,1.000000,,2013-08-18 11:11:00,
2013-08-18 05:42:00,65.0,44.0,-100.00,SSW,196,1.0,4.0,46,0.00,,,0.00,1.000000,,2013-08-18 11:42:00,
2013-08-18 05:52:00,65.0,44.0,-100.00,SSW,196,1.0,4.0,46,0.00,,,0.00,1.000000,,2013-08-18 11:52:00,
2013-08-18 06:01:00,65.0,44.0,-100.00,SSW,196,1.0,4.0,46,0.00,,,0.00,1.000000,,2013-08-18 12:01:00,
2013-08-18 06:11:00,65.0,44.0,-100.00,SSW,196,1.0,4.0,46,0.00,,,0.00,1.000000,,2013-08-18 12:11:00,
2013-08-18 06:42:00,63.0,46.0,-100.00,NW,319,2.0,6.0,54,0.00,,,0.00,1.000000,,2013-08-18 12:42:00,
2013-08-18 06:52:00,63.0,46.0,-100.00,NW,319,2.0,6.0,54,0.00,,,0.00,1.000000,,2013-08-18 12:52:00,
2013-08-18 07:01:00,63.0,46.0,-100.00,NW,319,2.0,6.0,54,0.00,,,0.00,1.000000,,2013-08-18 13:01:00,
2013-08-18 07:11:00,63.0,46.0,-100.00,NW,319,2.0,6.0,54,0.00,,,0.00,1.000000,,2013-08-18 13:11:00,
2013-08-18 07:42:00,64.0,46.0,-100.00,West,272,2.0,4.0,52,0.00,,,0.00,23.000000,,2013-08-18 13:42:00,
2013-08-18 07:52:00,64.0,46.0,-100.00,West,272,2.0,4.0,52,0.00,,,0.00,23.000000,,2013-08-18 13:52:00,
2013-08-18 08:01:00,64.0,46.0,-100.00,West,272,2.0,4.0,52,0.00,,,0.00,23.000000,,2013-08-18 14:01:00,
2013-08-18 08:11:00,64.0,46.0,-100.00,West,272,2.0,4.0,52,0.00,,,0.00,23.000000,,2013-08-18 14:11:00,
2013-08-18 08:42:00,68.0,46.0,-100.00,SW,219,6.0,8.0,45,0.00,,,0.00,124.000000,,2013-08-18 14:42:00,
2013-08-18 08:53:00,68.0,46.0,-100.00,SW,219,6.0,8.0,45,0.00,,,0.00,124.000000,,2013-08-18 14:53:00,
2013-08-18 09:01:00,68.0,46.0,-100.00,SW,219,6.0,8.0,45,0.00,,,0.00,124.000000,,2013-08-18 15:01:00,
2013-08-18 09:11:00,68.0,46.0,-100.00,SW,219,6.0,8.0,45,0.00,,,0.00,124.000000,,2013-08-18 15:11:00,
2013-08-18 09:43:00,71.0,46.0,-100.00,SSW,208,5.0,9.0,41,0.00,,,0.00,225.000000,,2013-08-18 15:43:00,
2013-08-18 09:54:00,71.0,46.0,-100.00,SSW,208,5.0,9.0,41,0.00,,,0.00,225.000000,,2013-08-18 15:54:00,
2013-08-18 10:03:00,71.0,46.0,-100.00,SSW,208,5.0,9.0,41,0.00,,,0.00,225.000000,,2013-08-18 16:03:00,
2013-08-18 10:13:00,71.0,46.0,-100.00,SSW,208,5.0,9.0,41,0.00,,,0.00,225.000000,,2013-08-18 16:13:00,
2013-08-18 10:42:00,75.0,45.0,-100.00,West,259,5.0,10.0,34,0.00,,,0.00,623.000000,,2013-08-18 16:42:00,
2013-08-18 10:52:00,75.0,45.0,-100.00,West,259,5.0,10.0,34,0.00,,,0.00,623.000000,,2013-08-18 16:52:00,
2013-08-18 11:02:00,75.0,45.0,-100.00,West,259,5.0,10.0,34,0.00,,,0.00,623.000000,,2013-08-18 17:02:00,
2013-08-18 11:12:00,75.0,45.0,-100.00,West,259,5.0,10.0,34,0.00,,,0.00,623.000000,,2013-08-18 17:12:00,
2013-08-18 11:43:00,77.0,44.0,-100.00,West,277,6.0,14.0,31,0.00,,,0.00,497.000000,,2013-08-18 17:43:00,
2013-08-18 11:52:00,77.0,44.0,-100.00,West,277,6.0,14.0,31,0.00,,,0.00,497.000000,,2013-08-18 17:52:00,
2013-08-18 12:02:00,77.0,44.0,-100.00,West,277,6.0,14.0,31,0.00,,,0.00,497.000000,,2013-08-18 18:02:00,
2013-08-18 12:12:00,77.0,44.0,-100.00,West,277,6.0,14.0,31,0.00,,,0.00,497.000000,,2013-08-18 18:12:00,
2013-08-18 12:42:00,79.0,44.0,-100.00,West,272,4.0,13.0,29,0.00,,,0.00,837.000000,,2013-08-18 18:42:00,
2013-08-18 12:52:00,79.0,44.0,-100.00,West,272,4.0,13.0,29,0.00,,,0.00,837.000000,,2013-08-18 18:52:00,
2013-08-18 13:01:00,79.0,44.0,-100.00,West,272,4.0,13.0,29,0.00,,,0.00,837.000000,,2013-08-18 19:01:00,
2013-08-18 13:11:00,79.0,44.0,-100.00,West,272,4.0,13.0,29,0.00,,,0.00,837.000000,,2013-08-18 19:11:00,
2013-08-18 13:42:00,81.0,42.0,-100.00,West,264,7.0,16.0,25,0.00,,,0.00,1052.000000,,2013-08-18 19:42:00,
2013-08-18 13:52:00,81.0,42.0,-100.00,West,264,7.0,16.0,25,0.00,,,0.00,1052.000000,,2013-08-18 19:52:00,
2013-08-18 14:02:00,81.0,42.0,-100.00,West,264,7.0,16.0,25,0.00,,,0.00,1052.000000,,2013-08-18 20:02:00,
2013-08-18 14:12:00,81.0,42.0,-100.00,West,264,7.0,16.0,25,0.00,,,0.00,1052.000000,,2013-08-18 20:12:00,
2013-08-18 14:42:00,84.0,42.0,-100.00,South,184,4.0,17.0,23,0.00,,,0.00,1110.000000,,2013-08-18 20:42:00,
2013-08-18 14:52:00,84.0,42.0,-100.00,South,184,4.0,17.0,23,0.00,,,0.00,1110.000000,,2013-08-18 20:52:00,
2013-08-18 15:01:00,84.0,42.0,-100.00,South,184,4.0,17.0,23,0.00,,,0.00,1110.000000,,2013-08-18 21:01:00,
2013-08-18 15:11:00,84.0,42.0,-100.00,South,184,4.0,17.0,23,0.00,,,0.00,1110.000000,,2013-08-18 21:11:00,
2013-08-18 15:42:00,86.0,41.0,-100.00,SW,236,6.0,18.0,21,0.00,,,0.00,1063.000000,,2013-08-18 21:42:00,
2013-08-18 15:53:00,86.0,41.0,-100.00,SW,236,6.0,18.0,21,0.00,,,0.00,1063.000000,,2013-08-18 21:53:00,
2013-08-18 16:03:00,86.0,41.0,-100.00,SW,236,6.0,18.0,21,0.00,,,0.00,1063.000000,,2013-08-18 22:03:00,
2013-08-18 16:13:00,86.0,41.0,-100.00,SW,236,6.0,18.0,21,0.00,,,0.00,1063.000000,,2013-08-18 22:13:00,
2013-08-18 16:42:00,86.0,41.0,-100.00,ESE,103,4.0,16.0,21,0.00,,,0.00,875.000000,,2013-08-18 22:42:00,
2013-08-18 16:52:00,86.0,41.0,-100.00,ESE,103,4.0,16.0,21,0.00,,,0.00,875.000000,,2013-08-18 22:52:00,
2013-08-18 17:02:00,86.0,41.0,-100.00,ESE,103,4.0,16.0,21,0.00,,,0.00,875.000000,,2013-08-18 23:02:00,
2013-08-18 17:11:00,86.0,41.0,-100.00,ESE,103,4.0,16.0,21,0.00,,,0.00,875.000000,,2013-08-18 23:11:00,
2013-08-18 17:42:00,85.0,39.0,-100.00,WSW,241,7.0,14.0,20,0.00,,,0.00,697.000000,,2013-08-18 23:42:00,
2013-08-18 17:52:00,85.0,39.0,-100.00,WSW,241,7.0,14.0,20,0.00,,,0.00,697.000000,,2013-08-18 23:52:00,
2013-08-18 18:02:00,85.0,39.0,-100.00,WSW,241,7.0,14.0,20,0.00,,,0.00,697.000000,,2013-08-19 00:02:00,
2013-08-18 18:11:00,85.0,39.0,-100.00,WSW,241,7.0,14.0,20,0.00,,,0.00,697.000000,,2013-08-19 00:11:00,
2013-08-18 18:42:00,84.0,39.0,-100.00,NW,318,5.0,16.0,20,0.00,,,0.00,531.000000,,2013-08-19 00:42:00,
2013-08-18 18:52:00,84.0,39.0,-100.00,NW,318,5.0,16.0,20,0.00,,,0.00,531.000000,,2013-08-19 00:52:00,
2013-08-18 19:02:00,84.0,39.0,-100.00,NW,318,5.0,16.0,20,0.00,,,0.00,531.000000,,2013-08-19 01:02:00,
2013-08-18 19:11:00,84.0,39.0,-100.00,NW,318,5.0,16.0,20,0.00,,,0.00,531.000000,,2013-08-19 01:11:00,
2013-08-18 19:42:00,82.0,39.0,-100.00,WNW,287,8.0,16.0,22,0.00,,,0.00,274.000000,,2013-08-19 01:42:00,
2013-08-18 19:52:00,82.0,39.0,-100.00,WNW,287,8.0,16.0,22,0.00,,,0.00,274.000000,,2013-08-19 01:52:00,
2013-08-18 20:06:00,82.0,39.0,-100.00,WNW,287,8.0,16.0,22,0.00,,,0.00,274.000000,,2013-08-19 02:06:00,
2013-08-18 20:11:00,82.0,39.0,-100.00,WNW,287,8.0,16.0,22,0.00,,,0.00,274.000000,,2013-08-19 02:11:00,
2013-08-18 20:42:00,76.0,40.0,-100.00,NW,314,2.0,12.0,27,0.00,,,0.00,40.000000,,2013-08-19 02:42:00,
2013-08-18 20:52:00,76.0,40.0,-100.00,NW,314,2.0,12.0,27,0.00,,,0.00,40.000000,,2013-08-19 02:52:00,
2013-08-18 21:01:00,76.0,40.0,-100.00,NW,314,2.0,12.0,27,0.00,,,0.00,40.000000,,2013-08-19 03:01:00,
2013-08-18 21:11:00,76.0,40.0,-100.00,NW,314,2.0,12.0,27,0.00,,,0.00,40.000000,,2013-08-19 03:11:00,
2013-08-18 21:42:00,76.0,40.0,-100.00,NNW,341,2.0,3.0,27,0.00,,,0.00,1.000000,,2013-08-19 03:42:00,
2013-08-18 21:53:00,76.0,40.0,-100.00,NNW,341,2.0,3.0,27,0.00,,,0.00,1.000000,,2013-08-19 03:53:00,
2013-08-18 22:03:00,76.0,40.0,-100.00,NNW,341,2.0,3.0,27,0.00,,,0.00,1.000000,,2013-08-19 04:03:00,
2013-08-18 22:12:00,76.0,40.0,-100.00,NNW,341,2.0,3.0,27,0.00,,,0.00,1.000000,,2013-08-19 04:12:00,
2013-08-18 22:42:00,74.0,41.0,-100.00,East,101,4.0,7.0,31,0.00,,,0.00,1.000000,,2013-08-19 04:42:00,
2013-08-18 22:53:00,74.0,41.0,-100.00,East,101,4.0,7.0,31,0.00,,,0.00,1.000000,,2013-08-19 04:53:00,
2013-08-18 23:02:00,74.0,41.0,-100.00,East,101,4.0,7.0,31,0.00,,,0.00,1.000000,,2013-08-19 05:02:00,
2013-08-18 23:11:00,74.0,41.0,-100.00,East,101,4.0,7.0,31,0.00,,,0.00,1.000000,,2013-08-19 05:11:00,
2013-08-18 23:42:00,73.0,46.0,-100.00,East,96,11.0,17.0,38,0.00,,,0.00,1.000000,,2013-08-19 05:42:00,
2013-08-18 23:52:00,73.0,46.0,-100.00,East,96,11.0,17.0,38,0.00,,,0.00,1.000000,,2013-08-19 05:52:00,